| time (UTC) | temp F | wind direction | speed MPH | gust MPH | rain 1hr in | rain 24hr in | rain mn in | humidity % | barometer mb |
| 20260510233006 | 86 | 96 | 6.0 | 19.0 | 0.00 | 0.00 | 0.00 | 65 | 1012.0 |
| 20260510230008 | 89 | 122 | 5.0 | 9.0 | 0.00 | 0.00 | 0.00 | 61 | 1011.8 |
| 20260510223005 | 89 | 169 | 4.0 | 16.0 | 0.00 | 0.00 | 0.00 | 60 | 1012.0 |
| 20260510221507 | 89 | 155 | 5.0 | 12.0 | 0.00 | 0.00 | 0.00 | 60 | 1012.3 |
| 20260510214508 | 88 | 207 | 4.0 | 13.0 | 0.00 | 0.00 | 0.00 | 61 | 1012.8 |
| 20260510211508 | 88 | 114 | 6.0 | 12.0 | 0.00 | 0.00 | 0.00 | 62 | 1013.1 |
| 20260510201510 | 87 | 76 | 6.0 | 14.0 | 0.00 | 0.00 | 0.00 | 62 | 1012.9 |
| 20260510200028 | 87 | 139 | 3.0 | 12.0 | 0.00 | 0.00 | 0.00 | 65 | 1012.9 |
| 20260510194508 | 87 | 98 | 5.0 | 11.0 | 0.00 | 0.00 | 0.00 | 65 | 1013.0 |
| 20260510191511 | 87 | 112 | 7.0 | 13.0 | 0.00 | 0.00 | 0.00 | 64 | 1013.2 |
| 20260510190021 | 86 | 152 | 6.0 | 14.0 | 0.00 | 0.00 | 0.00 | 66 | 1013.3 |
| 20260510184513 | 86 | 204 | 6.0 | 14.0 | 0.00 | 0.00 | 0.00 | 67 | 1013.4 |
| 20260510183027 | 85 | 65 | 6.0 | 10.0 | 0.00 | 0.00 | 0.00 | 67 | 1013.6 |
| 20260510181524 | 85 | 79 | 3.0 | 12.0 | 0.00 | 0.00 | 0.00 | 69 | 1013.9 |
| 20260510174514 | 84 | 216 | 5.0 | 18.0 | 0.00 | 0.00 | 0.00 | 71 | 1014.1 |
| 20260510173004 | 84 | 148 | 5.0 | 11.0 | 0.00 | 0.00 | 0.00 | 72 | 1014.3 |
| 20260510171506 | 83 | 192 | 2.0 | 11.0 | 0.00 | 0.00 | 0.00 | 78 | 1014.7 |
| 20260510170008 | 81 | 117 | 4.0 | 11.0 | 0.00 | 0.00 | 0.00 | 78 | 1014.8 |
| 20260510164514 | 80 | 119 | 4.0 | 8.0 | 0.00 | 0.00 | 0.00 | 79 | 1015.0 |
| 20260510163013 | 79 | 68 | 5.0 | 9.0 | 0.00 | 0.00 | 0.00 | 80 | 1015.1 |
| 20260510161504 | 79 | 106 | 4.0 | 10.0 | 0.00 | 0.00 | 0.00 | 82 | 1015.1 |
| 20260510160005 | 77 | 56 | 3.0 | 13.0 | 0.00 | 0.00 | 0.00 | 84 | 1015.3 |
| 20260510154510 | 76 | 76 | 5.0 | 10.0 | 0.00 | 0.00 | 0.00 | 85 | 1015.4 |
| 20260510153014 | 75 | 97 | 3.0 | 6.0 | 0.00 | 0.00 | 0.00 | 87 | 1015.6 |
| 20260510151515 | 74 | 87 | 3.0 | 8.0 | 0.00 | 0.00 | 0.00 | 88 | 1015.6 |
| 20260510150004 | 74 | 117 | 1.0 | 8.0 | 0.00 | 0.00 | 0.00 | 89 | 1015.6 |
| 20260510144517 | 73 | 140 | 5.0 | 7.0 | 0.00 | 0.00 | 0.00 | 89 | 1015.5 |
| 20260510143009 | 73 | 60 | 3.0 | 8.0 | 0.00 | 0.00 | 0.00 | 90 | 1015.3 |
| 20260510141518 | 73 | 75 | 1.0 | 6.0 | 0.00 | 0.00 | 0.00 | 91 | 1015.1 |
| 20260510140017 | 72 | 58 | 4.0 | 7.0 | 0.00 | 0.00 | 0.00 | 91 | 1014.9 |
| 20260510134504 | 72 | 68 | 3.0 | 7.0 | 0.00 | 0.00 | 0.00 | 91 | 1014.7 |
| 20260510133010 | 72 | 60 | 3.0 | 4.0 | 0.00 | 0.00 | 0.00 | 91 | 1014.5 |
| 20260510131513 | 72 | 107 | 3.0 | 4.0 | 0.00 | 0.00 | 0.00 | 91 | 1014.2 |
| 20260510130015 | 72 | 93 | 2.0 | 5.0 | 0.00 | 0.00 | 0.00 | 91 | 1013.8 |
| 20260510124517 | 71 | 67 | 0.0 | 0.0 | 0.00 | 0.00 | 0.00 | 92 | 1013.5 |
| 20260510123006 | 71 | 63 | 0.0 | 0.0 | 0.00 | 0.00 | 0.00 | 91 | 1013.4 |
| 20260510121510 | 71 | 31 | 0.0 | 0.0 | 0.00 | 0.00 | 0.00 | 92 | 1013.1 |
| 20260510120022 | 71 | 79 | 0.0 | 2.0 | 0.00 | 0.00 | 0.00 | 92 | 1012.6 |
| 20260510114524 | 70 | 214 | 0.0 | 7.0 | 0.00 | 0.00 | 0.00 | 92 | 1012.1 |
| 20260510113023 | 70 | 139 | 2.0 | 7.0 | 0.00 | 0.00 | 0.00 | 91 | 1011.8 |
| 20260510111506 | 70 | 120 | 1.0 | 4.0 | 0.00 | 0.00 | 0.00 | 91 | 1011.7 |
| 20260510110017 | 70 | 236 | 1.0 | 7.0 | 0.00 | 0.00 | 0.00 | 91 | 1011.6 |
| 20260510104516 | 70 | 183 | 1.0 | 7.0 | 0.00 | 0.00 | 0.00 | 91 | 1011.4 |
| 20260510103023 | 69 | 216 | 4.0 | 11.0 | 0.00 | 0.00 | 0.00 | 91 | 1011.4 |
| 20260510101521 | 69 | 184 | 2.0 | 5.0 | 0.00 | 0.00 | 0.00 | 90 | 1011.3 |
| 20260510100011 | 68 | 158 | 3.0 | 7.0 | 0.00 | 0.00 | 0.00 | 91 | 1011.4 |
| 20260510093018 | 68 | 204 | 1.0 | 3.0 | 0.00 | 0.00 | 0.00 | 90 | 1011.2 |
| 20260510091522 | 68 | 231 | 0.0 | 3.0 | 0.00 | 0.00 | 0.00 | 89 | 1011.3 |
| 20260510090025 | 68 | 248 | 0.0 | 3.0 | 0.00 | 0.00 | 0.00 | 89 | 1011.5 |
| 20260510084513 | 69 | 171 | 1.0 | 2.0 | 0.00 | 0.00 | 0.00 | 89 | 1011.6 |
| 20260510083017 | 69 | 155 | 0.0 | 2.0 | 0.00 | 0.00 | 0.00 | 88 | 1011.5 |
| 20260510081523 | 69 | 221 | 0.0 | 2.0 | 0.00 | 0.00 | 0.00 | 88 | 1011.5 |
| 20260510074508 | 70 | 202 | 1.0 | 4.0 | 0.00 | 0.00 | 0.00 | 88 | 1011.5 |
| 20260510073015 | 70 | 138 | 0.0 | 2.0 | 0.00 | 0.00 | 0.00 | 87 | 1011.5 |
| 20260510071519 | 70 | 192 | 1.0 | 5.0 | 0.00 | 0.00 | 0.00 | 87 | 1011.5 |
| 20260510070022 | 71 | 158 | 2.0 | 4.0 | 0.00 | 0.00 | 0.00 | 86 | 1011.7 |
| 20260510064506 | 71 | 155 | 0.0 | 2.0 | 0.00 | 0.00 | 0.00 | 86 | 1011.8 |
| 20260510063013 | 71 | 190 | 0.0 | 6.0 | 0.00 | 0.00 | 0.00 | 85 | 1011.8 |
| 20260510061515 | 72 | 134 | 1.0 | 5.0 | 0.00 | 0.00 | 0.00 | 85 | 1011.9 |
| 20260510060023 | 72 | 122 | 1.0 | 6.0 | 0.00 | 0.00 | 0.00 | 84 | 1012.0 |
| 20260510054524 | 72 | 186 | 3.0 | 9.0 | 0.00 | 0.00 | 0.00 | 83 | 1011.9 |
| 20260510053012 | 73 | 200 | 5.0 | 10.0 | 0.00 | 0.00 | 0.00 | 83 | 1011.8 |
| 20260510051512 | 73 | 18 | 2.0 | 9.0 | 0.00 | 0.00 | 0.00 | 83 | 1011.7 |
| 20260510050019 | 73 | 122 | 4.0 | 12.0 | 0.00 | 0.00 | 0.00 | 82 | 1011.5 |
| 20260510044520 | 73 | 94 | 5.0 | 17.0 | 0.00 | 0.00 | 0.00 | 80 | 1011.5 |
| 20260510043026 | 74 | 220 | 6.0 | 12.0 | 0.00 | 0.00 | 0.00 | 79 | 1011.7 |
| 20260510041512 | 73 | 77 | 8.0 | 13.0 | 0.00 | 0.00 | 0.00 | 82 | 1011.6 |
| 20260510040016 | 70 | 219 | 0.0 | 0.0 | 0.00 | 0.00 | 0.00 | 86 | 1011.2 |
| 20260510034524 | 70 | 101 | 0.0 | 0.0 | 0.00 | 0.00 | 0.00 | 86 | 1011.1 |
| 20260510033024 | 70 | 101 | 0.0 | 0.0 | 0.00 | 0.00 | 0.00 | 85 | 1011.0 |
| 20260510031531 | 71 | 101 | 0.0 | 0.0 | 0.00 | 0.00 | 0.00 | 85 | 1010.8 |
| 20260510030012 | 71 | 101 | 0.0 | 1.0 | 0.00 | 0.00 | 0.00 | 84 | 1010.7 |
| 20260510024517 | 72 | 101 | 0.0 | 0.0 | 0.00 | 0.00 | 0.00 | 84 | 1010.6 |
| 20260510023018 | 72 | 202 | 0.0 | 0.0 | 0.00 | 0.00 | 0.00 | 83 | 1010.4 |
| 20260510021533 | 72 | 167 | 0.0 | 5.0 | 0.00 | 0.00 | 0.00 | 83 | 1010.4 |
| 20260510020028 | 73 | 276 | 0.0 | 0.0 | 0.00 | 0.00 | 0.00 | 82 | 1009.9 |
| 20260510014514 | 74 | 248 | 1.0 | 2.0 | 0.00 | 0.00 | 0.00 | 80 | 1009.7 |
| 20260510013018 | 75 | 356 | 1.0 | 4.0 | 0.00 | 0.00 | 0.00 | 78 | 1009.4 |
| 20260510011520 | 77 | 49 | 0.0 | 0.0 | 0.00 | 0.00 | 0.00 | 76 | 1009.3 |
| 20260510010022 | 79 | 49 | 0.0 | 0.0 | 0.00 | 0.00 | 0.00 | 73 | 1009.2 |
| 20260510004523 | 80 | 49 | 0.0 | 0.0 | 0.00 | 0.00 | 0.00 | 68 | 1009.1 |
| 20260510003014 | 80 | 75 | 0.0 | 0.0 | 0.00 | 0.00 | 0.00 | 67 | 1009.0 |
| 20260510001518 | 80 | 49 | 0.0 | 1.0 | 0.00 | 0.00 | 0.00 | 65 | 1009.1 |
| 20260510000021 | 76 | 66 | 0.0 | 4.0 | 0.00 | 0.00 | 0.00 | 71 | 1009.2 |
| 20260509234532 | 75 | 67 | 0.0 | 4.0 | 0.00 | 0.00 | 0.00 | 74 | 1008.9 |